Total_Precipitation_Accumulation
0.00 0.01 0.09 0.17 0.27 0.53 0.68 0.43 0.28 0.18 0.21 0.34 0.33 0.24 0.21 0.21 0.19 0.26 0.10 0.02 0.01 0.01 0.01 0.03 0.04 0.03 0.03 0.04 0.05 0.06 0.06 0.06 0.06 0.05 0.04 0.03 0.03 0.02 0.02 0.01 0.01 0.02 0.02 0.02 0.02 0.02 0.02 0.02 0.02
0.00 0.02 0.10 0.19 0.37 0.93 0.75 0.34 0.18 0.16 0.27 0.36 0.28 0.19 0.18 0.14 0.11 0.08 0.06 0.04 0.02 0.01 0.01 0.01 0.03 0.03 0.02 0.03 0.04 0.06 0.08 0.08 0.08 0.07 0.05 0.05 0.04 0.03 0.02 0.02 0.02 0.02 0.02 0.02 0.02 0.02 0.02 0.01 0.01
0.00 0.02 0.10 0.19 0.39 0.76 0.42 0.18 0.12 0.16 0.30 0.35 0.27 0.22 0.19 0.15 0.13 0.12 0.05 0.05 0.04 0.02 0.01 0.02 0.03 0.03 0.02 0.03 0.04 0.06 0.07 0.08 0.09 0.08 0.06 0.05 0.05 0.05 0.04 0.03 0.03 0.03 0.03 0.03 0.02 0.02 0.02 0.01 0.01
0.00 0.03 0.08 0.16 0.35 0.44 0.23 0.13 0.11 0.16 0.29 0.28 0.23 0.26 0.23 0.17 0.11 0.11 0.06 0.04 0.04 0.02 0.02 0.02 0.03 0.03 0.03 0.03 0.03 0.05 0.07 0.08 0.09 0.07 0.07 0.06 0.06 0.06 0.05 0.04 0.04 0.03 0.03 0.04 0.04 0.02 0.02 0.01 0.01
0.01 0.03 0.08 0.16 0.25 0.25 0.18 0.14 0.14 0.14 0.16 0.24 0.27 0.32 0.22 0.15 0.14 0.19 0.18 0.08 0.04 0.03 0.02 0.03 0.04 0.03 0.03 0.03 0.04 0.05 0.06 0.07 0.07 0.06 0.07 0.06 0.06 0.06 0.05 0.04 0.04 0.05 0.04 0.04 0.05 0.04 0.03 0.02 0.02
0.00 0.03 0.06 0.08 0.11 0.12 0.14 0.13 0.12 0.14 0.18 0.27 0.34 0.32 0.24 0.19 0.21 0.33 0.26 0.12 0.07 0.06 0.06 0.06 0.07 0.06 0.05 0.05 0.05 0.06 0.07 0.07 0.08 0.08 0.07 0.07 0.07 0.07 0.06 0.05 0.05 0.06 0.07 0.06 0.05 0.06 0.05 0.04 0.03
0.00 0.01 0.02 0.03 0.05 0.10 0.10 0.08 0.11 0.14 0.26 0.33 0.38 0.40 0.35 0.31 0.28 0.30 0.29 0.25 0.15 0.21 0.30 0.21 0.11 0.09 0.08 0.08 0.08 0.08 0.09 0.10 0.10 0.10 0.09 0.10 0.10 0.10 0.09 0.10 0.10 0.11 0.13 0.13 0.09 0.08 0.09 0.09 0.07
0.00 0.00 0.00 0.01 0.01 0.04 0.04 0.05 0.10 0.15 0.22 0.36 0.45 0.52 0.57 0.44 0.37 0.31 0.33 0.35 0.22 0.22 0.32 0.31 0.17 0.13 0.10 0.09 0.10 0.11 0.13 0.13 0.13 0.13 0.12 0.12 0.12 0.13 0.15 0.16 0.21 0.23 0.27 0.27 0.21 0.16 0.16 0.18 0.16
0.00 0.00 0.00 0.00 0.01 0.01 0.01 0.03 0.07 0.14 0.22 0.29 0.46 0.59 0.48 0.39 0.52 0.43 0.35 0.41 0.40 0.32 0.37 0.37 0.21 0.14 0.12 0.12 0.13 0.16 0.17 0.18 0.17 0.19 0.19 0.19 0.21 0.29 0.42 0.41 0.51 0.49 0.52 0.51 0.47 0.42 0.42 0.45 0.34
0.00 0.00 0.00 0.00 0.00 0.00 0.01 0.02 0.08 0.23 0.37 0.55 0.74 0.74 0.53 0.47 0.68 0.67 0.54 0.64 0.62 0.48 0.53 0.43 0.27 0.21 0.19 0.16 0.20 0.24 0.27 0.40 0.38 0.47 0.56 0.58 0.65 0.60 0.50 0.68 0.91 0.99 1.01 0.96 0.94 1.02 0.94 0.77 0.59
0.00 0.00 0.00 0.00 0.00 0.00 0.01 0.02 0.06 0.17 0.56 0.95 1.14 1.06 0.84 0.64 0.77 0.86 0.79 1.03 0.87 0.58 0.42 0.41 0.33 0.30 0.27 0.26 0.29 0.36 0.48 0.79 0.69 0.64 0.79 0.97 0.90 0.68 0.56 0.70 0.99 1.29 1.33 1.20 1.36 1.56 1.21 1.14 1.19
0.00 0.00 0.00 0.00 0.00 0.00 0.01 0.03 0.11 0.21 0.58 0.80 0.98 1.11 1.06 0.94 0.93 0.95 0.92 0.88 0.92 0.87 0.74 0.60 0.57 0.51 0.57 0.59 0.54 0.50 0.60 0.78 0.76 0.83 0.80 1.06 1.07 0.91 0.84 0.91 1.06 1.31 1.50 1.76 1.79 1.90 1.83 1.77 1.63
0.00 0.00 0.00 0.00 0.00 0.01 0.01 0.06 0.15 0.26 0.51 0.53 0.62 0.75 0.92 1.08 1.28 1.31 1.23 1.17 1.12 1.11 1.03 1.00 0.98 0.98 1.04 0.96 0.88 0.73 0.76 0.80 0.84 0.99 1.02 1.14 1.32 1.32 1.35 1.33 1.29 1.28 1.63 2.02 2.18 2.00 2.22 2.27 1.97
0.00 0.00 0.00 0.00 0.01 0.01 0.02 0.07 0.17 0.30 0.44 0.50 0.54 0.69 0.89 1.10 1.22 1.41 1.41 1.40 1.27 1.24 1.30 1.51 1.56 1.57 1.60 1.58 1.49 1.31 1.22 1.25 1.24 1.31 1.47 1.60 1.71 1.85 1.85 1.76 1.65 1.49 1.57 1.84 2.04 2.07 2.28 2.16 2.07
0.00 0.01 0.04 0.04 0.03 0.04 0.08 0.17 0.33 0.45 0.49 0.64 0.72 0.91 0.97 1.18 1.34 1.33 1.31 1.35 1.38 1.44 1.73 2.05 2.22 2.32 2.32 2.31 2.15 1.89 1.74 1.83 1.98 2.01 2.11 2.10 2.14 2.32 2.21 1.96 1.72 1.66 1.74 1.83 1.83 1.85 1.96 1.81 1.74
0.00 0.02 0.09 0.08 0.05 0.06 0.11 0.35 0.49 0.54 0.65 0.79 0.81 1.01 1.18 1.14 1.30 1.29 1.28 1.43 1.72 1.95 2.32 2.62 2.80 3.02 3.09 3.00 2.72 2.34 2.16 2.18 2.24 2.33 2.31 2.30 2.30 2.26 2.19 1.86 1.57 1.67 1.77 1.75 1.71 1.62 1.71 1.67 1.68
0.02 0.05 0.10 0.16 0.08 0.10 0.17 0.45 0.57 0.59 0.77 0.88 1.01 0.94 1.00 1.13 1.35 1.47 1.49 1.60 1.92 2.26 2.76 3.23 3.65 3.90 3.96 3.58 2.93 2.55 2.48 2.46 2.42 2.44 2.32 2.20 2.10 2.04 2.12 1.81 1.65 1.70 1.64 1.54 1.47 1.63 1.79 1.71 1.70
0.02 0.03 0.10 0.19 0.13 0.12 0.23 0.45 0.64 0.71 0.84 1.00 1.00 0.91 0.87 1.00 1.17 1.36 1.48 1.69 1.99 2.29 2.84 3.51 4.12 4.27 4.03 3.39 2.83 2.70 2.59 2.39 2.22 1.99 1.80 1.66 1.67 1.67 1.77 1.57 1.50 1.61 1.57 1.43 1.49 1.64 1.75 1.54 1.61
0.02 0.04 0.12 0.18 0.11 0.13 0.26 0.43 0.65 0.79 0.90 0.96 1.11 1.02 1.01 1.10 1.23 1.46 1.61 1.82 2.16 2.49 2.94 3.45 3.91 3.88 3.58 3.19 2.77 2.51 2.17 1.94 1.71 1.44 1.25 1.17 1.15 1.21 1.37 1.23 1.31 1.39 1.33 1.25 1.27 1.35 1.39 1.21 1.46
0.04 0.07 0.16 0.18 0.11 0.12 0.28 0.48 0.72 0.76 0.74 0.76 0.95 1.00 0.97 1.01 1.14 1.34 1.63 1.76 1.99 2.38 2.65 2.84 2.72 2.42 2.24 2.12 1.97 1.69 1.65 1.64 1.58 1.48 1.29 1.09 1.09 1.08 1.03 1.02 1.04 1.10 1.13 1.03 1.01 1.14 1.12 0.95 1.21
0.05 0.07 0.12 0.18 0.20 0.21 0.31 0.61 0.80 0.78 0.69 0.65 0.68 0.76 0.78 0.85 0.98 1.18 1.53 1.64 1.60 1.85 2.00 1.84 1.50 1.19 1.12 1.11 1.05 1.19 1.36 1.48 1.53 1.55 1.47 1.30 1.24 1.20 1.15 1.05 0.97 0.94 0.97 0.97 0.95 1.03 1.03 0.91 0.96
0.08 0.06 0.07 0.09 0.18 0.39 0.43 0.75 0.95 0.94 0.91 0.72 0.65 0.72 0.71 0.70 0.72 0.93 1.15 1.14 1.13 1.18 1.08 0.95 0.79 0.65 0.59 0.58 0.63 0.71 0.91 1.20 1.41 1.58 1.63 1.63 1.54 1.38 1.26 1.14 0.96 0.82 0.80 0.84 0.78 0.85 0.96 0.97 0.86
0.05 0.04 0.06 0.09 0.14 0.26 0.34 0.56 0.92 1.05 1.18 0.81 0.62 0.63 0.57 0.60 0.71 0.80 0.76 0.68 0.66 0.62 0.54 0.49 0.49 0.48 0.48 0.49 0.59 0.62 0.58 0.65 0.66 0.74 0.88 1.04 1.15 1.11 0.97 0.91 0.85 0.75 0.69 0.68 0.72 0.83 0.92 0.95 0.87
0.06 0.09 0.15 0.23 0.31 0.44 0.43 0.50 0.78 0.89 0.92 0.61 0.51 0.60 0.50 0.45 0.51 0.54 0.50 0.44 0.39 0.38 0.34 0.38 0.45 0.54 0.53 0.55 0.58 0.58 0.56 0.62 0.61 0.62 0.65 0.64 0.67 0.69 0.67 0.66 0.68 0.67 0.66 0.66 0.66 0.72 0.81 0.90 0.95
0.07 0.14 0.42 0.71 0.93 0.91 0.51 0.51 0.68 0.60 0.59 0.59 0.51 0.51 0.48 0.37 0.35 0.28 0.26 0.25 0.21 0.20 0.18 0.21 0.29 0.38 0.39 0.41 0.46 0.49 0.56 0.59 0.54 0.50 0.47 0.46 0.45 0.48 0.52 0.56 0.61 0.61 0.66 0.72 0.78 0.79 0.79 0.87 0.98
0.07 0.10 0.27 0.44 0.57 0.64 0.47 0.71 0.74 0.54 0.51 0.45 0.35 0.30 0.33 0.23 0.19 0.14 0.11 0.11 0.10 0.11 0.11 0.11 0.13 0.18 0.23 0.28 0.37 0.50 0.67 0.73 0.68 0.66 0.54 0.50 0.48 0.47 0.51 0.58 0.64 0.64 0.66 0.67 0.77 0.82 0.88 0.96 0.99
0.08 0.07 0.09 0.14 0.26 0.44 0.56 0.69 0.60 0.43 0.45 0.36 0.24 0.17 0.16 0.13 0.09 0.08 0.07 0.06 0.05 0.05 0.06 0.07 0.08 0.12 0.19 0.25 0.32 0.37 0.43 0.50 0.51 0.52 0.52 0.49 0.55 0.50 0.55 0.63 0.72 0.75 0.76 0.79 0.83 0.84 0.94 1.12 1.19
0.08 0.06 0.06 0.09 0.17 0.28 0.47 0.69 0.64 0.49 0.47 0.37 0.24 0.14 0.09 0.07 0.05 0.04 0.03 0.03 0.03 0.04 0.06 0.08 0.08 0.14 0.28 0.41 0.46 0.36 0.29 0.27 0.34 0.43 0.50 0.52 0.55 0.56 0.60 0.65 0.68 0.73 0.75 0.79 0.84 0.89 1.00 1.16 1.22
0.11 0.09 0.08 0.09 0.10 0.17 0.34 0.46 0.36 0.31 0.28 0.25 0.18 0.12 0.10 0.07 0.04 0.02 0.02 0.02 0.03 0.06 0.09 0.19 0.24 0.32 0.43 0.58 0.66 0.55 0.38 0.31 0.32 0.36 0.35 0.38 0.46 0.56 0.63 0.60 0.54 0.51 0.57 0.70 0.85 0.92 1.00 1.09 1.13
0.11 0.10 0.09 0.11 0.10 0.12 0.17 0.27 0.17 0.14 0.12 0.10 0.08 0.06 0.04 0.02 0.01 0.01 0.01 0.01 0.03 0.05 0.15 0.38 0.63 0.89 0.95 1.03 1.11 0.96 0.58 0.37 0.30 0.25 0.24 0.30 0.43 0.53 0.59 0.56 0.51 0.49 0.56 0.69 0.84 0.99 1.20 1.33 1.29